View from above orbital plane
|
View from above satellite
|
Ground track
|
The orbit data is extracted from the following two-line orbital elements,
1 32785U 08021C 22182.67100872 .00000719 00000-0 80752-4 0 9995
2 32785 97.6578 153.0695 0012474 179.4453 180.6781 14.89629419768600
Epoch (UTC): | 01 July 2022 16:06:15 |
Eccentricity: | 0.0012474 |
inclination: | 97.6578° |
perigee height: | 590 km |
apogee height: | 608 km |
right ascension of ascending node: | 153.0695° |
argument of perigee: | 179.4453° |
revolutions per day: | 14.89629419 |
mean anomaly at epoch: | 180.6781° |
orbit number at epoch: | 76860 |
The dashed part of the orbit path shows where the satellite is in the earth's shadow,
|
|